Location: Unspecified
(0.0000°N, 0.0000°E)
Time: 01:27:56
(UTC+00:00)

Vanguard 2 Rocket - Pass Details

Date: 23 November 2019
Orbit: 554 x 3326 km, 32.9° (Epoch: 11 December)

Event Time Altitude Azimuth Distance (km) Brightness Sun altitude
Rises 09:49:05 0° 277° (W) 5,527 10.6 54.9°
Reaches altitude 10° 09:52:40 10° 268° (W) 4,875 10.5 55.6°
Maximum altitude 10:06:15 38° 206° (SSW) 4,013 10.8 58.2°
Drops below altitude 10° 10:24:13 10° 144° (SE) 6,281 11.8 61.4°
Sets 10:29:49 0° 136° (SE) 7,217 11.9 62.4°
